Location: Larrial
(48.2758°N, 4.5331°W)
Time: 09:35:08
(UTC+00:00)

XW-2F - Pass Details

Date: 05 December 2021
Orbit: 495 x 515 km, 97.5° (Epoch: 15 January)

Event Time Altitude Azimuth Distance (km) Brightness Sun altitude
Rises 06:47:15 0° 11° (N) 2,652 ? -10.5°
Reaches altitude 10° 06:49:22 10° 10° (N) 1,759 ? -10.1°
Maximum altitude 06:53:09 74° 285° (WNW) 542 ? -9.6°
Drops below altitude 10° 06:56:54 10° 200° (SSW) 1,738 ? -9.0°
Sets 06:58:58 0° 199° (SSW) 2,618 ? -8.7°
